Location: Unspecified
(0.0000°N, 0.0000°E)
Time: 05:30:05
(UTC+00:00)

Envisat - Pass Details

Date: 10 August 2020
Orbit: 764 x 766 km, 98.1° (Epoch: 13 August)

Event Time Altitude Azimuth Distance (km) Brightness Sun altitude
Rises 05:29:34 0° 20° (NNE) 3,214 6.8 -8.6°
Reaches altitude 10° 05:31:54 10° 24° (NNE) 2,291 6.1 -8.1°
Maximum altitude 05:36:51 56° 102° (ESE) 904 3.8 -6.9°
Drops below altitude 10° 05:41:48 10° 180° (S) 2,301 5.3 -5.7°
Sets 05:44:09 0° 184° (S) 3,230 6.0 -5.1°
